Buzzards Bay, MA

8:54 PM EST on January 19, 2017 (GMT -0500)
Cape Cod Coast Guard Air Station

Weather History for KFMH - March, 2015

Change the Weather History Date:

Sunday, March 15, 2015

  Actual Average Record
Temperature  
Mean Temperature 35 °F -  
Max Temperature 42 °F 40 °F 57 °F (2002)
Min Temperature 28 °F 25 °F 17 °F (2011)
Degree Days  
Heating Degree Days 30    
Moisture  
Dew Point 30 °F    
Average Humidity 83    
Maximum Humidity 100    
Minimum Humidity 57    
Precipitation  
Precipitation 0.01 in - - ()
Sea Level Pressure  
Sea Level Pressure 29.63 in    
Wind  
Wind Speed 10 mph (NW)    
Max Wind Speed 28 mph    
Max Gust Speed 31 mph    
Visibility 8 miles    
Events Fog , Rain , Snow    
Averages and records for this station are not official NWS values.
T = Trace of Precipitation, MM = Missing Value Source: NWS Daily Summary

Daily Weather History Graph

Daily Weather History Graph

Search for Another Location

Airport or City:

Trip Planner

Search our weather history database for the weather conditions in past years. The results will help you decide how hot, cold, wet, or windy it might be!

Date:

Astronomy

Mar. 15, 2015 Rise Set
Actual Time 6:54 AM EDT 6:48 PM EDT
Civil Twilight 6:26 AM EDT 7:16 PM EDT
Nautical Twilight 5:54 AM EDT 7:48 PM EDT
Astronomical Twilight 5:21 AM EDT 8:21 PM EDT
Moon 3:16 AM EDT (3/15) 1:30 PM EDT (3/15)
Length of Visible Light 12h 49m
Length of Day
11h 54m
Waning Crescent, 29% of the Moon is Illuminated
Mar 15
Waning Crescent
Mar 20
New
Mar 27
First Quarter
Apr 4
Full
Apr 11
Last Quarter

Hourly Weather History & Observations

Time (EDT) Temp. Windchill Dew Point Humidity Pressure Visibility Wind Dir Wind Speed Gust Speed Precip Events Conditions
12:15 AM 35.6 °F 29.2 °F 35.6 °F 100% 29.61 in 0.2 mi WNW 8.1 mph - N/A Fog Fog
12:35 AM 35.6 °F 28.6 °F 35.6 °F 100% 29.60 in 0.5 mi WNW 9.2 mph - N/A   Light Drizzle
12:55 AM 35.6 °F 28.6 °F 35.6 °F 100% 29.59 in 3.0 mi WNW 9.2 mph - N/A   Light Drizzle
1:15 AM 35.6 °F 29.2 °F 35.6 °F 100% 29.59 in 4.0 mi NW 8.1 mph - N/A   Overcast
1:35 AM 35.6 °F 28.0 °F 35.6 °F 100% 29.59 in 9.0 mi WNW 10.4 mph - N/A   Light Drizzle
1:55 AM 35.6 °F 29.2 °F 33.8 °F 93% 29.58 in 8.0 mi WNW 8.1 mph - N/A Rain Light Rain
2:15 AM 33.8 °F 27.0 °F 33.8 °F 100% 29.59 in 9.0 mi WNW 8.1 mph - N/A   Light Drizzle
2:35 AM 33.8 °F 26.4 °F 33.8 °F 100% 29.58 in 5.0 mi WNW 9.2 mph - N/A Rain Light Rain
2:55 AM 33.8 °F 25.8 °F 33.8 °F 100% 29.58 in 10.0 mi WNW 10.4 mph - N/A   Overcast
3:15 AM 33.8 °F 28.6 °F 33.8 °F 100% 29.55 in 10.0 mi WNW 5.8 mph - N/A   Overcast
3:35 AM 33.8 °F 27.0 °F 33.8 °F 100% 29.56 in 10.0 mi WNW 8.1 mph - N/A   Overcast
3:55 AM 33.8 °F 25.8 °F 33.8 °F 100% 29.56 in 10.0 mi WNW 10.4 mph - N/A   Overcast
4:15 AM 33.8 °F 25.8 °F 33.8 °F 100% 29.56 in 10.0 mi West 10.4 mph 16.1 mph N/A   Overcast
4:35 AM 33.8 °F 25.3 °F 33.8 °F 100% 29.56 in 10.0 mi WNW 11.5 mph - N/A   Overcast
4:55 AM 33.8 °F 25.3 °F 33.8 °F 100% 29.57 in 10.0 mi WNW 11.5 mph - N/A   Overcast
5:15 AM 33.8 °F 26.4 °F 33.8 °F 100% 29.57 in 10.0 mi WNW 9.2 mph - N/A   Overcast
5:35 AM 35.6 °F 27.5 °F 33.8 °F 93% 29.57 in 10.0 mi WNW 11.5 mph - N/A   Overcast
5:55 AM 35.6 °F 28.0 °F 33.8 °F 93% 29.58 in 10.0 mi WNW 10.4 mph - N/A   Overcast
6:15 AM 35.6 °F 28.0 °F 33.8 °F 93% 29.58 in 10.0 mi West 10.4 mph - N/A   Overcast
6:35 AM 35.6 °F 28.0 °F 33.8 °F 93% 29.58 in 10.0 mi WNW 10.4 mph - N/A   Overcast
6:55 AM 35.6 °F 28.0 °F 35.6 °F 100% 29.59 in 10.0 mi WNW 10.4 mph - N/A   Overcast
7:15 AM 35.6 °F 29.2 °F 35.6 °F 100% 29.60 in 10.0 mi West 8.1 mph - N/A   Overcast
7:35 AM 35.6 °F 28.6 °F 35.6 °F 100% 29.60 in 10.0 mi West 9.2 mph - N/A   Overcast
7:55 AM 35.6 °F 27.5 °F 35.6 °F 100% 29.60 in 10.0 mi West 11.5 mph - N/A   Overcast
8:15 AM 35.6 °F 28.6 °F 33.8 °F 93% 29.60 in 10.0 mi West 9.2 mph - N/A   Overcast
8:35 AM 37.4 °F 31.4 °F 33.8 °F 87% 29.60 in 10.0 mi West 8.1 mph - N/A   Overcast
8:55 AM 37.4 °F 31.4 °F 32.0 °F 81% 29.61 in 10.0 mi West 8.1 mph - N/A   Overcast
9:15 AM 37.4 °F 31.4 °F 33.8 °F 87% 29.60 in 10.0 mi West 8.1 mph - N/A   Overcast
9:35 AM 37.4 °F 30.8 °F 33.8 °F 87% 29.60 in 10.0 mi West 9.2 mph - N/A   Overcast
9:55 AM 37.4 °F 30.3 °F 32.0 °F 81% 29.59 in 10.0 mi West 10.4 mph - N/A   Overcast
10:15 AM 39.2 °F 31.2 °F 32.0 °F 75% 29.59 in 10.0 mi West 13.8 mph - N/A   Overcast
10:35 AM 39.2 °F 32.5 °F 32.0 °F 75% 29.59 in 10.0 mi West 10.4 mph 18.4 mph N/A   Overcast
10:55 AM 41.0 °F 32.5 °F 32.0 °F 70% 29.59 in 10.0 mi West 17.3 mph - N/A   Overcast
11:15 AM 41.0 °F 34.7 °F 32.0 °F 70% 29.59 in 10.0 mi West 10.4 mph - N/A   Overcast
11:35 AM 41.0 °F 34.3 °F 32.0 °F 70% 29.59 in 10.0 mi West 11.5 mph 18.4 mph N/A   Overcast
11:55 AM 41.0 °F 34.3 °F 30.2 °F 65% 29.59 in 10.0 mi West 11.5 mph 17.3 mph N/A   Overcast
12:15 PM 41.0 °F 34.3 °F 30.2 °F 65% 29.59 in 10.0 mi WNW 11.5 mph - N/A   Overcast
12:35 PM 41.0 °F 36.4 °F 30.2 °F 65% 29.59 in 10.0 mi WNW 6.9 mph - N/A   Overcast
12:55 PM 42.8 °F 37.0 °F 30.2 °F 61% 29.58 in 10.0 mi WNW 10.4 mph - N/A   Overcast
1:15 PM 42.8 °F 37.5 °F 28.4 °F 57% 29.58 in 10.0 mi NW 9.2 mph - N/A   Overcast
1:35 PM 41.0 °F 34.3 °F 28.4 °F 61% 29.58 in 10.0 mi WNW 11.5 mph 18.4 mph N/A   Overcast
1:55 PM 41.0 °F 35.2 °F 28.4 °F 61% 29.57 in 10.0 mi NW 9.2 mph 18.4 mph N/A   Overcast
2:15 PM 41.0 °F 36.4 °F 28.4 °F 61% 29.57 in 10.0 mi NW 6.9 mph - N/A   Overcast
2:35 PM 41.0 °F 35.8 °F 28.4 °F 61% 29.56 in 10.0 mi NW 8.1 mph - N/A   Overcast
2:55 PM 42.8 °F 36.6 °F 28.4 °F 57% 29.56 in 10.0 mi NW 11.5 mph 17.3 mph N/A   Overcast
3:15 PM 42.8 °F 36.2 °F 28.4 °F 57% 29.56 in 10.0 mi NW 12.7 mph - N/A   Mostly Cloudy
3:35 PM 42.8 °F 36.2 °F 28.4 °F 57% 29.56 in 10.0 mi WNW 12.7 mph 18.4 mph N/A   Mostly Cloudy
3:55 PM 41.0 °F 33.5 °F 30.2 °F 65% 29.55 in 10.0 mi WNW 13.8 mph - N/A   Mostly Cloudy
4:15 PM 35.6 °F 27.5 °F 32.0 °F 87% 29.57 in 10.0 mi NNE 11.5 mph - N/A   Overcast
4:35 PM 35.6 °F 28.0 °F 32.0 °F 87% 29.58 in 10.0 mi NNE 10.4 mph 18.4 mph N/A   Overcast
4:55 PM 33.8 °F 26.4 °F 32.0 °F 93% 29.60 in 1.5 mi North 9.2 mph 17.3 mph N/A Snow Light Snow
5:15 PM 32.0 °F 23.0 °F 30.2 °F 93% 29.61 in 0.5 mi North 11.5 mph - N/A Snow Light Snow
5:35 PM 32.0 °F 23.0 °F 30.2 °F 93% 29.63 in 0.5 mi NNE 11.5 mph 18.4 mph N/A Snow Light Snow
5:55 PM 30.2 °F 19.3 °F 30.2 °F 100% 29.64 in 1.0 mi North 15.0 mph - N/A Snow Light Snow
6:15 PM 30.2 °F 20.8 °F 28.4 °F 93% 29.65 in 0.5 mi North 11.5 mph 23.0 mph N/A Snow Light Snow
6:35 PM 30.2 °F 20.2 °F 28.4 °F 93% 29.67 in 0.8 mi North 12.7 mph 19.6 mph N/A Snow Light Snow
6:55 PM 30.2 °F 18.5 °F 28.4 °F 93% 29.68 in 0.5 mi NNE 17.3 mph 23.0 mph N/A Snow Light Snow
7:15 PM 30.2 °F 20.2 °F 26.6 °F 86% 29.70 in 3.0 mi North 12.7 mph 23.0 mph N/A Snow Light Snow
7:35 PM 30.2 °F 20.8 °F 26.6 °F 86% 29.71 in 6.0 mi North 11.5 mph 18.4 mph N/A   Overcast
7:55 PM 30.2 °F 17.8 °F 26.6 °F 86% 29.72 in 3.0 mi North 19.6 mph 31.1 mph N/A Snow Light Snow
8:15 PM 28.4 °F 17.0 °F 24.8 °F 86% 29.74 in 4.0 mi NNW 15.0 mph 27.6 mph N/A Snow Light Snow
8:35 PM 28.4 °F 16.6 °F 24.8 °F 86% 29.75 in 3.0 mi NNW 16.1 mph 21.9 mph N/A Snow Light Snow
8:55 PM 28.4 °F 18.0 °F 23.0 °F 80% 29.77 in 4.0 mi North 12.7 mph 23.0 mph N/A Snow Light Snow
9:15 PM 28.4 °F 17.0 °F 21.2 °F 74% 29.78 in 10.0 mi North 15.0 mph 28.8 mph N/A Rain Light Freezing Rain
9:35 PM 28.4 °F 18.0 °F 19.4 °F 69% 29.79 in 10.0 mi North 12.7 mph 25.3 mph N/A   Overcast
9:55 PM 28.4 °F 18.0 °F 21.2 °F 74% 29.79 in 10.0 mi NNW 12.7 mph 20.7 mph N/A   Overcast
10:15 PM 28.4 °F 17.5 °F 21.2 °F 74% 29.79 in 9.0 mi NNW 13.8 mph 31.1 mph N/A   Overcast
10:35 PM 28.4 °F 17.5 °F 21.2 °F 74% 29.80 in 10.0 mi NNW 13.8 mph 24.2 mph N/A   Overcast
10:55 PM 28.4 °F 17.5 °F 21.2 °F 74% 29.80 in 10.0 mi NNW 13.8 mph 24.2 mph N/A   Overcast
11:15 PM 28.4 °F 18.5 °F 23.0 °F 80% 29.81 in 9.0 mi NW 11.5 mph 20.7 mph N/A   Overcast
11:35 PM 28.4 °F 16.2 °F 23.0 °F 80% 29.81 in 10.0 mi NNW 17.3 mph 26.5 mph N/A   Overcast
11:55 PM 28.4 °F 17.5 °F 21.2 °F 74% 29.81 in 10.0 mi NNW 13.8 mph 29.9 mph N/A   Overcast